Вернуться в каталог

NIMBUS 2 DEB

АктивенLEO
NORAD 25825·DEBRIS·🇺🇸 United States

Запущен May 15, 1966 с Vandenberg Space Force Base

Loading…

Ближайшие Пролёты (ближайшие 24 часа)

TLE

СвежийSource: Space-Track

Эпоха: Sep 14, 2026, 04:22 UTC

1 25825U 66040H   26257.18242236  .00001989  00000-0  22872-2 0  9998
2 25825 100.3311 343.8063 0043349 304.0942  85.6341 13.70504373949478

Отслеживайте NIMBUS 2 DEB в реальном времени с AllMySat

Download on the App Store